This is the latest recevied weather packets stored in our database for station/object DM3DP. If no packets are shown the sender has not sent any weather packets the latest 10 day(s).
| Time | Temp. | Humidity | Pressure | Rain* | Wind** | Luminosity | Snow |
|---|---|---|---|---|---|---|---|
| 1777462355 | 18.89° C | 31% | 1022.7 hPa | 0 mm | - | 593 W/m² | - |
| 1777462025 | 18.89° C | 31% | 1022.7 hPa | 0 mm | - | 460 W/m² | - |
| 1777461695 | 18.89° C | 28% | 1022.8 hPa | 0 mm | - | 491 W/m² | - |
| 1777461365 | 18.89° C | 30% | 1022.8 hPa | 0 mm | - | 746 W/m² | - |
| 1777461036 | 18.89° C | 32% | 1022.8 hPa | 0 mm | - | 749 W/m² | - |
| 1777460705 | 18.89° C | 32% | 1022.8 hPa | 0 mm | - | 749 W/m² | - |
| 1777460375 | 18.89° C | 31% | 1022.8 hPa | 0 mm | - | 748 W/m² | - |
| 1777460045 | 18.89° C | 31% | 1022.9 hPa | 0 mm | - | 746 W/m² | - |
| 1777459715 | 18.33° C | 32% | 1022.9 hPa | 0 mm | - | 746 W/m² | - |
| 1777459385 | 18.33° C | 31% | 1022.9 hPa | 0 mm | - | 743 W/m² | - |
| 1777459055 | 18.33° C | 32% | 1023 hPa | 0 mm | - | 740 W/m² | - |
| 1777458725 | 18.33° C | 32% | 1023 hPa | 0 mm | - | 737 W/m² | - |
| 1777458395 | 18.33° C | 33% | 1023 hPa | 0 mm | - | 733 W/m² | - |
| 1777458065 | 18.33° C | 32% | 1023 hPa | 0 mm | - | 731 W/m² | - |
| 1777457735 | 17.78° C | 32% | 1023.1 hPa | 0 mm | - | 730 W/m² | - |
| 1777457406 | 17.22° C | 32% | 1023.1 hPa | 0 mm | - | 742 W/m² | - |
| 1777457075 | 17.22° C | 32% | 1023.1 hPa | 0 mm | - | 725 W/m² | - |
| 1777456745 | 17.22° C | 32% | 1023.2 hPa | 0 mm | - | 729 W/m² | - |
| 1777456415 | 17.22° C | 30% | 1023.2 hPa | 0 mm | - | 735 W/m² | - |
| 1777456085 | 17.22° C | 31% | 1023.2 hPa | 0 mm | - | 741 W/m² | - |
| 1777455755 | 17.22° C | 31% | 1023.2 hPa | 0 mm | - | 747 W/m² | - |
| 1777455425 | 16.67° C | 31% | 1023.2 hPa | 0 mm | - | 750 W/m² | - |
| 1777455095 | 16.67° C | 32% | 1023.3 hPa | 0 mm | - | 756 W/m² | - |
| 1777454765 | 16.67° C | 32% | 1023.3 hPa | 0 mm | - | 761 W/m² | - |
| 1777454436 | 16.11° C | 32% | 1023.2 hPa | 0 mm | - | 765 W/m² | - |
* Rain latest hour (hover to see other rain measurements)
** Current wind speed in m/s (hover to see current wind gust speed)